sat.trackr.live / text

‹ back to catalog

STARLINK-5905

NORAD 55986 · 2023-042A

PAYLOAD ACTIVE UNKNOWN

§ Identity

Operator
Country
US
Launch date
2023-03-24
Launch site
AFETR
Launch vehicle
Mass (kg)
RCS (m²)

Purposes: comms

External: N2YO · Heavens-Above · Gunter

§ Orbital elements

Epoch: 2026-09-20T20:25:43.301568Z

Period
94.27 min
Inclination
43.0041°
Eccentricity
0.0001441
Mean motion
15.27575032 rev/d
Perigee alt
482.1 km
Apogee alt
484.1 km
Semi-major
6,861.2 km
B*
2.0782e-5
RAAN
37.7040°
Arg perigee
272.3923°
Mean anomaly
87.6764°
Rev number
19,353

§ Raw data

STARLINK-59051 55986U 23042A   26263.85119562  .00000310  00000+0  20782-4 0  99962 55986  43.0041  37.7040 0001441 272.3923  87.6764 15.27575032193532

JSON: /api/v1/satellites/55986 · /tle

For live sub-satellite position, see the globe view (requires WebGL).

§ Visibility from observer

Set your observer location to see the next 7 days of passes ≥ 10°. The values pass through the URL so the page stays shareable.

No JS? Fill the form by hand. The geolocation button needs JavaScript.